Location: Baili�vre
(50.0696°N, 4.2409°E)
Time: 05:56:31
(UTC+00:00)

ATLAS 3B R/B - Pass Details

Date: 08 August 2020
Orbit: 1016 x 1179 km, 63.8° (Epoch: 22 September)

Event Time Altitude Azimuth Distance (km) Brightness Sun altitude
Exits shadow 22:21:15 35° 128° (SE) 1,593 3.1 -21.4°
Maximum altitude 22:21:52 35° 116° (ESE) 1,575 3.2 -21.4°
Drops below altitude 10° 22:27:46 10° 54° (NE) 2,830 5.1 -21.8°
Sets 22:30:36 0° 46° (NE) 3,802 5.9 -21.9°
